Cape Byron Observation History
Time Wind Speed Temp Pressure Rel. Hum Rain
05/10:30pm SSW 9-11 kts 15.5°c 1026.4 hPa 81% 0.2mm
05/10:00pm SSW 9-11 kts 15.6°c 1026.5 hPa 81% 0.2mm
05/09:30pm SSW 9-11 kts 15.5°c 1026.6 hPa 83% 0.2mm
05/09:00pm SSW 9-11 kts 15.2°c 1026.7 hPa 87% 0.2mm
05/08:30pm SSW 9-11 kts 15.3°c 1026.7 hPa 87% 0.2mm
05/08:00pm SSW 9-11 kts 15.4°c 1026.8 hPa 85% 0.2mm
05/07:30pm SSW 9-11 kts 15.5°c 1026.7 hPa 84% 0.2mm
05/07:00pm SSW 10-12 kts 15.6°c 1026.7 hPa 83% 0.2mm
05/06:30pm SSW 10-13 kts 15.5°c 1026.4 hPa 83% 0.2mm
05/06:00pm SSW 11-14 kts 15.8°c 1026.2 hPa 81% 0.2mm
05/05:30pm SSW 11-16 kts 16.0°c 1026.1 hPa 81% 0.2mm
05/05:00pm S 17-20 kts 17.5°c 1025.7 hPa 75% 0.2mm
05/04:30pm S 17-20 kts 17.5°c 1025.7 hPa 72% 0.2mm
05/04:00pm S 19-23 kts 17.6°c 1025.7 hPa 72% 0.2mm
05/03:30pm S 19-23 kts 17.7°c 1025.8 hPa 73% 0.2mm
05/03:00pm S 20-24 kts 17.7°c 1025.8 hPa 74% 0.2mm
05/02:30pm S 19-23 kts 17.7°c 1026.0 hPa 71% 0.2mm
05/02:00pm S 18-21 kts 17.8°c 1026.1 hPa 73% 0.2mm
05/01:30pm SSE 16-20 kts 17.6°c 1026.4 hPa 71% 0.2mm
05/01:00pm S 13-18 kts 18.4°c 1026.8 hPa 68% 0.2mm
05/12:30pm SSW 12-17 kts 18.0°c 1027.2 hPa 66% 0.2mm
05/12:00pm SSW 12-16 kts 17.7°c 1027.8 hPa 67% 0.2mm
05/11:30am SSW 12-17 kts 17.4°c 1028.2 hPa 70% 0.2mm
05/11:00am SW 11-17 kts 17.2°c 1028.5 hPa 72% 0.2mm
05/10:30am SW 13-19 kts 16.0°c 1028.8 hPa 72% 0.2mm
05/10:00am SW 12-18 kts 14.9°c 1029.0 hPa 77% 0.2mm
05/09:30am WSW 13-20 kts 13.1°c 1029.3 hPa 86% 0.2mm
05/09:00am SW 18-22 kts 13.6°c 1028.9 hPa 80% 1.0mm
05/08:30am SW 18-24 kts 13.5°c 1028.3 hPa 77% 1.0mm
05/08:00am SW 19-24 kts 12.9°c 1028.1 hPa 82% 1.0mm
05/07:30am SW 21-25 kts 12.6°c 1027.8 hPa 87% 1.0mm
05/07:00am SW 21-24 kts 12.7°c 1027.5 hPa 81% 1.0mm
05/06:30am SW 19-24 kts 13.0°c 1027.2 hPa 81% 1.0mm
05/06:00am SW 19-24 kts 13.1°c 1027.1 hPa 81% 1.0mm
05/05:30am SW 18-23 kts 13.1°c 1026.9 hPa 81% 1.0mm
05/05:00am SW 17-21 kts 13.4°c 1026.9 hPa 80% 0.8mm
05/04:30am SW 17-21 kts 13.5°c 1026.6 hPa 82% 0.8mm
05/04:00am SW 16-20 kts 13.1°c 1026.8 hPa 88% 0.8mm
05/03:30am SW 17-20 kts 13.3°c 1026.9 hPa 85% 0.8mm
05/03:00am SW 15-20 kts 13.2°c 1027.1 hPa 88% 0.8mm
05/02:30am SW 14-18 kts 13.3°c 1027.4 hPa 88% 0.8mm
05/02:00am SW 15-18 kts 13.4°c 1027.6 hPa 94% 0.8mm
05/01:30am SSW 17-23 kts 13.7°c 1027.7 hPa 89% 0.8mm
05/01:00am SSW 19-24 kts 13.9°c 1027.9 hPa 88% 0.8mm
05/12:30am SSW 16-23 kts 13.6°c 1028.1 hPa 90% 0.8mm
05/12:00am SW 17-21 kts 13.9°c 1028.2 hPa 93% 0.6mm
Time Wind Speed Temp Pressure Rel. Hum Rain
04/11:30pm SSW 17-23 kts 14.3°c 1028.4 hPa 95% 0.6mm
04/11:00pm SSW 17-22 kts 14.0°c 1028.4 hPa 96% 0.6mm
04/10:30pm SW 18-24 kts 14.3°c 1028.6 hPa 82% 0.6mm
04/10:00pm SW 11-15 kts 14.1°c 1029.2 hPa 82% 0.6mm
04/09:30pm SSW 12-15 kts 13.6°c 1029.0 hPa 89% 0.6mm
04/09:00pm SSW 17-22 kts 13.9°c 1029.0 hPa 88% 0.6mm
04/08:30pm SSW 16-21 kts 14.6°c 1028.9 hPa 79% 0.6mm
04/08:00pm SSW 17-22 kts 14.6°c 1028.9 hPa 78% 0.6mm
04/07:30pm SW 17-22 kts 14.6°c 1028.6 hPa 81% 0.6mm
04/07:00pm SSW 17-22 kts 14.6°c 1028.4 hPa 81% 0.6mm
04/06:30pm SSW 16-19 kts 14.3°c 1028.4 hPa 86% 0.6mm
04/06:00pm SW 12-16 kts 14.1°c 1028.3 hPa 98% 0.6mm
04/05:43pm S 18-27 kts 14.6°c 1028.2 hPa 99% 0.4mm
04/05:39pm SSE 19-27 kts 15.1°c 1028.1 hPa 99% 0.4mm
04/05:30pm S 17-23 kts 15.3°c 1028.1 hPa 98% 0.0mm
04/05:00pm SSW 17-24 kts 15.6°c 1027.5 hPa 86% 0.0mm
04/04:30pm SSW 17-23 kts 15.3°c 1027.5 hPa 88% 0.0mm
04/04:03pm S 23-33 kts 16.5°c 1027.3 hPa 82% 0.0mm
04/04:00pm S 21-30 kts 16.6°c 1027.3 hPa 81% 0.0mm
04/03:58pm S 20-30 kts 16.5°c 1027.2 hPa 81% 0.0mm
04/03:30pm SSW 21-29 kts 16.4°c 1027.2 hPa 85% 0.0mm
04/03:15pm SSW 20-33 kts 16.8°c 1027.2 hPa 81% 0.0mm
04/03:00pm SSW 22-28 kts 16.5°c 1027.1 hPa 78% 0.0mm
04/02:30pm SSW 22-29 kts 16.9°c 1027.0 hPa 79% 0.0mm
04/02:00pm SSW 18-27 kts 15.7°c 1027.0 hPa 88% 0.0mm
04/01:46pm S 28-38 kts 16.2°c 1027.2 hPa 82% 0.0mm
04/01:40pm S 27-38 kts 16.8°c 1027.1 hPa 74% 0.0mm
04/01:37pm S 23-33 kts 17.3°c 1027.1 hPa 73% 0.0mm
04/01:30pm SSW 21-28 kts 17.5°c 1027.2 hPa 73% 0.0mm
04/01:09pm SSW 19-29 kts 17.1°c 1027.4 hPa 74% 0.0mm
04/01:00pm SSW 21-29 kts 17.1°c 1027.4 hPa 75% 0.0mm
04/12:32pm SSW 20-30 kts 16.9°c 1027.5 hPa 73% 0.0mm
04/12:30pm SSW 19-27 kts 16.9°c 1027.6 hPa 74% 0.0mm
04/12:00pm SSW 19-29 kts 15.7°c 1028.1 hPa 73% 0.0mm
04/11:30am SW 18-26 kts 15.2°c 1028.6 hPa 76% 0.0mm
04/11:16am SSW 20-30 kts 14.6°c 1028.6 hPa 80% 0.0mm
04/11:00am SW 14-21 kts 15.0°c 1028.8 hPa 74% 0.0mm
04/10:30am SSW 20-29 kts 13.2°c 1029.1 hPa 85% 0.0mm
04/10:06am SSW 18-28 kts 14.9°c 1028.8 hPa 67% 0.0mm
04/10:00am SSW 15-22 kts 14.8°c 1028.6 hPa 66% 0.0mm
04/09:30am SSW 18-24 kts 13.5°c 1028.8 hPa 75% 0.0mm
04/09:11am SSW 17-27 kts 13.1°c 1028.8 hPa 71% 0.0mm
04/09:00am SW 16-23 kts 13.8°c 1028.5 hPa 65% 0.0mm
04/08:30am SW 13-18 kts 12.9°c 1028.4 hPa 66% 0.0mm
04/08:00am SW 13-20 kts 12.7°c 1028.0 hPa 68% 0.0mm
04/07:30am SW 15-21 kts 12.8°c 1027.5 hPa 73% 0.0mm
04/07:24am SW 17-27 kts 12.7°c 1027.4 hPa 74% 0.0mm
04/07:00am SSW 19-25 kts 13.0°c 1027.0 hPa 67% 0.0mm
04/06:30am SSW 16-24 kts 12.8°c 1026.7 hPa 65% 0.0mm
04/06:00am SW 15-21 kts 12.2°c 1026.4 hPa 65% 0.0mm
04/05:30am SW 15-21 kts 12.6°c 1025.9 hPa 63% 0.0mm
04/05:00am SSW 18-24 kts 13.5°c 1025.5 hPa 59% 0.0mm
04/04:30am SSW 18-24 kts 13.9°c 1025.3 hPa 56% 0.0mm
04/04:00am SSW 19-26 kts 13.9°c 1025.1 hPa 56% 0.0mm
04/03:30am SSW 20-27 kts 14.1°c 1025.3 hPa 54% 0.0mm
04/03:00am SSW 19-25 kts 13.8°c 1025.3 hPa 53% 0.0mm
04/02:30am SSW 19-27 kts 13.8°c 1025.4 hPa 53% 0.0mm
04/02:00am SSW 18-23 kts 13.7°c 1025.4 hPa 58% 0.0mm
04/01:30am SSW 19-25 kts 14.1°c 1025.4 hPa 60% 0.0mm
04/01:00am SSW 17-21 kts 13.3°c 1025.5 hPa 68% 0.0mm
04/12:30am SW 15-19 kts 13.4°c 1025.5 hPa 68% 0.0mm
04/12:00am SW 17-21 kts 13.7°c 1025.5 hPa 66% 0.0mm
Time Wind Speed Temp Pressure Rel. Hum Rain
03/11:30pm SW 15-20 kts 13.5°c 1025.5 hPa 67% 0.0mm
03/11:00pm SSW 17-25 kts 13.9°c 1025.6 hPa 65% 0.0mm
03/10:30pm SW 18-21 kts 14.2°c 1025.6 hPa 64% 0.0mm
03/10:00pm SW 17-21 kts 14.5°c 1025.5 hPa 63% 0.0mm
03/09:30pm SSW 15-19 kts 15.0°c 1025.3 hPa 61% 0.0mm
03/09:03pm S 17-27 kts 17.2°c 1025.1 hPa 52% 0.0mm
03/09:00pm S 21-28 kts 18.4°c 1025.2 hPa 51% 0.0mm
03/08:30pm S 22-28 kts 18.5°c 1024.8 hPa 51% 0.0mm
03/08:00pm S 23-29 kts 18.3°c 1024.8 hPa 55% 0.0mm
03/07:30pm S 23-27 kts 18.3°c 1024.4 hPa 55% 0.0mm
03/07:00pm SSE 22-28 kts 18.2°c 1023.9 hPa 57% 0.0mm
03/06:30pm SSE 19-24 kts 17.8°c 1023.5 hPa 62% 0.0mm
03/06:00pm SSE 20-25 kts 17.6°c 1023.0 hPa 61% 0.0mm
03/05:30pm S 20-26 kts 17.6°c 1022.4 hPa 62% 0.0mm
03/05:00pm S 17-24 kts 17.3°c 1022.0 hPa 61% 0.0mm
03/04:30pm S 19-25 kts 17.0°c 1021.6 hPa 60% 0.0mm
03/04:00pm S 20-25 kts 17.0°c 1021.3 hPa 55% 0.0mm
03/03:30pm S 20-25 kts 17.1°c 1020.9 hPa 53% 0.0mm
03/03:00pm SSE 18-22 kts 17.1°c 1020.8 hPa 53% 0.0mm
03/02:30pm SSE 14-17 kts 17.2°c 1020.4 hPa 51% 0.0mm
03/02:00pm SSE 11-15 kts 17.4°c 1020.2 hPa 49% 0.0mm
03/01:30pm SSE 10-13 kts 17.4°c 1020.3 hPa 45% 0.0mm
03/01:00pm S 9-13 kts 17.5°c 1020.3 hPa 43% 0.0mm
03/12:30pm SSW 11-15 kts 17.2°c 1020.6 hPa 46% 0.0mm
03/12:00pm SSW 10-15 kts 16.8°c 1021.0 hPa 42% 0.0mm
03/11:30am SSW 9-11 kts 16.6°c 1021.4 hPa 44% 0.0mm
03/11:00am SW 12-15 kts 15.8°c 1021.5 hPa 43% 0.0mm
03/10:30am SW 13-17 kts 15.3°c 1021.7 hPa 45% 0.0mm
03/10:00am SW 12-17 kts 14.7°c 1021.8 hPa 45% 0.0mm
03/09:30am SW 12-17 kts 14.0°c 1021.6 hPa 49% 0.0mm
03/09:00am WSW 13-17 kts 13.3°c 1021.5 hPa 50% 0.0mm
03/08:30am WSW 13-19 kts 12.6°c 1021.1 hPa 50% 0.0mm
03/08:00am WSW 15-19 kts 12.3°c 1020.8 hPa 50% 0.0mm
03/07:30am WSW 16-21 kts 12.2°c 1020.6 hPa 50% 0.0mm
03/07:00am WSW 17-21 kts 11.6°c 1020.4 hPa 50% 0.0mm
03/06:30am WSW 16-20 kts 11.3°c 1020.1 hPa 51% 0.0mm
03/06:00am WSW 16-20 kts 11.4°c 1019.5 hPa 52% 0.0mm
03/05:30am W 17-20 kts 10.9°c 1019.3 hPa 53% 0.0mm
03/05:00am WSW 17-21 kts 11.0°c 1018.9 hPa 53% 0.0mm
03/04:30am WSW 18-22 kts 11.2°c 1018.5 hPa 52% 0.0mm
03/04:00am W 17-22 kts 11.2°c 1018.4 hPa 52% 0.0mm
03/03:30am W 17-22 kts 11.1°c 1018.3 hPa 53% 0.0mm
03/03:00am WSW 17-25 kts 11.4°c 1018.1 hPa 51% 0.0mm
03/02:30am W 18-23 kts 11.6°c 1018.2 hPa 51% 0.0mm
03/02:00am W 13-17 kts 11.5°c 1018.3 hPa 52% 0.0mm
03/01:30am W 14-20 kts 11.7°c 1018.4 hPa 51% 0.0mm
03/01:00am W 17-25 kts 12.2°c 1018.5 hPa 50% 0.0mm
03/12:30am W 19-27 kts 12.3°c 1018.5 hPa 49% 0.0mm
03/12:00am W 19-28 kts 12.4°c 1018.7 hPa 49% 0.0mm